Wetbulb
61.71 62.30 63.15 60.37 50.65 49.86 45.73 48.01 49.40 49.98 50.90 54.89 56.18 54.47 52.82 54.29 54.36 50.96 63.54 65.16 66.26 68.84 70.13 69.70 70.63 71.04 71.02 70.86 70.91 71.32 71.26 70.49 69.93 69.86 69.89 69.23 69.23 69.02 68.88 68.73 69.35 69.14 68.22 67.80 68.40 68.17 67.81 67.37 67.54
59.53 62.28 61.73 56.25 47.14 43.11 45.33 50.87 48.71 50.76 53.07 54.64 54.50 54.26 53.18 54.82 61.81 62.13 62.74 65.92 66.54 69.25 69.68 69.71 69.71 70.61 70.78 70.90 71.10 71.08 71.30 71.17 70.63 70.09 69.92 69.36 69.08 68.53 68.46 68.45 69.20 68.27 67.24 67.64 66.84 67.35 67.00 66.63 66.81
61.78 62.62 55.52 50.72 47.15 43.56 45.47 50.38 49.05 52.77 53.99 53.90 53.50 55.65 55.75 57.37 61.68 62.17 64.94 66.22 66.39 68.87 69.65 69.50 69.35 70.50 70.62 70.82 71.07 70.87 70.83 70.89 70.90 70.29 69.78 69.02 68.47 69.02 69.13 68.65 68.86 68.22 66.89 66.49 66.47 66.94 66.54 66.43 66.54
59.36 58.88 55.24 46.60 44.88 49.32 49.55 50.83 53.76 52.88 54.08 54.54 53.64 51.42 59.28 61.28 61.78 64.08 65.94 66.13 65.43 68.75 69.53 68.25 69.56 70.34 70.19 70.24 70.59 70.66 70.56 70.71 70.63 70.28 69.95 69.43 68.75 69.11 69.31 69.10 68.62 67.96 66.64 66.31 66.52 66.48 66.67 66.75 66.68
59.49 55.63 47.81 45.24 45.76 49.98 52.05 52.80 52.67 51.49 51.94 52.70 53.31 51.10 54.94 58.80 62.56 64.93 65.25 65.63 65.07 68.27 68.87 68.34 69.02 69.61 69.60 69.65 69.80 69.73 69.96 69.76 69.83 70.11 69.80 69.36 69.12 68.71 69.13 69.08 68.19 67.26 66.82 66.56 66.63 66.95 67.32 67.17 66.85
51.95 52.85 45.06 42.64 44.39 50.32 51.45 51.13 51.73 50.99 52.06 52.76 52.41 52.47 53.84 58.47 59.90 62.97 65.61 64.99 66.20 67.94 67.73 68.27 66.55 67.64 68.34 68.58 68.78 68.83 68.79 69.00 68.92 68.70 69.33 69.39 68.77 68.38 68.85 68.56 67.68 67.29 66.46 67.18 66.84 66.94 68.41 67.79 66.98
48.88 47.42 43.66 44.06 44.25 47.18 49.78 50.74 50.13 49.84 50.20 50.12 53.17 51.22 53.94 50.40 53.07 59.20 64.21 65.60 66.19 68.01 67.35 67.68 67.61 66.80 65.45 66.40 66.81 67.41 67.72 67.75 67.78 67.75 68.12 67.85 67.30 67.65 67.92 67.27 67.26 67.45 67.31 67.51 66.94 67.13 67.53 67.23 66.22
49.32 45.30 41.55 43.12 43.09 44.86 47.81 48.43 51.02 49.28 47.74 52.52 54.51 49.63 49.65 47.95 51.34 51.63 56.75 64.01 64.82 66.88 67.13 67.15 66.99 66.85 66.33 65.68 63.94 64.84 65.77 66.05 66.29 65.77 65.30 64.59 64.63 65.42 65.68 64.64 66.31 67.49 67.74 67.46 67.05 67.14 67.14 66.47 66.04
53.80 43.71 40.25 42.70 43.02 45.09 47.16 44.66 47.98 48.85 46.28 47.85 51.59 51.05 50.70 48.73 49.91 49.62 50.58 55.85 62.68 64.71 65.98 66.64 66.37 66.06 65.69 65.31 63.59 62.49 63.30 63.70 63.69 63.42 62.84 62.10 64.07 64.86 63.53 62.65 64.94 66.90 66.90 67.31 66.96 66.29 65.98 64.98 64.04
45.92 39.59 40.61 45.89 44.49 41.53 43.11 42.30 42.27 41.42 41.13 42.54 45.35 47.24 47.30 47.20 45.96 45.17 45.40 46.93 51.02 59.99 64.12 66.04 66.27 65.83 65.46 65.28 64.69 63.33 64.07 63.32 63.28 63.34 63.71 64.19 64.42 64.21 62.98 59.82 62.38 64.31 64.62 65.94 66.33 65.75 63.21 61.54 60.99
45.09 40.97 43.49 43.08 42.42 41.63 40.03 39.55 41.36 38.57 36.78 39.71 39.53 41.94 44.19 44.77 44.35 43.81 44.48 45.27 46.49 49.10 53.78 65.05 65.94 66.09 65.08 64.67 64.02 62.62 63.79 62.60 62.43 62.20 62.86 63.48 64.26 62.69 62.05 60.13 61.58 63.63 61.40 63.16 63.14 62.29 61.26 60.13 60.61
37.52 42.38 41.05 42.31 42.08 40.27 38.40 40.18 37.54 38.42 38.73 42.29 41.47 42.73 42.77 42.85 42.98 43.35 43.63 44.54 45.76 46.78 49.71 51.77 64.66 65.43 65.44 64.99 64.12 63.21 62.99 62.06 61.83 62.52 62.82 63.08 62.60 62.36 61.79 61.57 62.69 63.37 63.17 61.13 60.19 60.70 59.70 60.25 60.46
38.55 39.28 40.65 41.55 41.12 39.35 40.14 37.18 37.25 38.15 40.98 42.02 42.31 43.40 41.97 42.11 43.27 44.32 45.32 45.93 46.06 45.93 47.50 50.03 57.26 64.30 65.49 65.26 64.65 63.63 63.03 62.27 61.96 62.53 63.19 63.05 62.03 61.44 61.85 62.12 62.80 63.07 62.61 60.33 59.84 59.21 59.19 59.38 58.00
39.82 39.79 39.43 40.33 39.58 39.76 37.77 37.17 37.64 38.27 39.34 39.81 42.12 41.43 41.68 42.14 43.28 43.85 44.81 45.24 46.40 47.77 47.33 48.63 50.00 52.05 62.39 64.87 65.16 63.81 63.31 62.98 62.52 62.42 63.04 62.93 62.00 61.43 62.52 61.55 62.40 62.84 61.88 60.04 59.49 58.71 58.71 55.63 54.25
39.81 35.20 37.99 38.16 38.45 37.07 38.17 33.89 35.22 38.85 40.74 40.04 39.62 39.80 41.06 42.65 43.73 43.95 45.69 45.78 46.48 47.73 48.79 48.71 49.34 50.02 50.70 60.30 64.18 64.93 63.84 62.88 62.95 61.92 62.51 63.21 62.17 61.50 62.45 61.02 61.91 62.48 62.02 60.65 59.29 58.75 55.69 52.51 51.24
36.66 35.23 30.50 36.82 37.28 37.66 35.54 28.10 37.47 40.29 39.86 39.77 39.96 39.30 41.09 42.11 43.95 44.17 45.07 45.64 45.78 46.41 46.98 48.86 50.82 49.72 49.31 50.03 54.57 63.10 64.40 63.61 62.88 62.73 62.42 63.18 62.20 61.61 61.87 60.83 61.60 61.96 61.02 59.49 58.37 57.13 52.28 49.66 48.11
33.75 26.23 29.53 32.54 38.46 36.24 34.42 30.49 36.97 40.43 39.98 39.27 38.75 39.40 40.44 40.87 44.44 45.64 46.16 45.63 46.21 46.12 46.15 46.43 47.97 48.57 49.57 49.73 50.66 57.95 63.31 64.45 63.56 63.16 62.70 62.73 62.14 61.21 61.26 60.95 61.87 61.56 59.74 58.57 57.66 55.38 50.62 47.28 45.48
25.17 25.37 29.47 29.47 34.60 34.75 31.96 31.89 36.16 38.58 39.32 38.45 36.96 37.21 38.77 42.35 43.80 45.26 46.12 45.62 45.55 45.38 45.60 45.77 46.95 47.50 48.62 49.38 51.91 53.83 58.91 63.58 64.48 63.81 62.54 62.48 61.92 61.07 60.67 60.93 60.80 60.74 58.80 57.19 56.27 53.35 49.55 46.14 44.41
31.19 28.55 27.19 32.06 35.15 31.87 30.64 31.42 34.11 37.77 38.93 37.27 37.69 39.05 40.79 42.42 43.98 44.82 45.40 44.50 44.44 45.17 45.14 45.21 45.50 46.01 46.55 46.35 47.05 48.94 50.62 57.16 61.56 63.40 63.22 62.55 62.13 61.17 60.47 60.69 59.70 59.10 57.48 56.36 55.01 51.93 46.03 42.92 39.23
30.70 27.22 26.64 30.73 33.93 32.59 30.74 31.33 35.61 38.00 37.80 37.15 37.61 38.48 40.57 42.52 42.78 44.45 43.86 43.31 43.68 44.04 44.79 45.08 45.29 45.47 45.58 45.65 46.48 47.98 48.51 49.68 50.04 59.37 62.78 62.74 61.95 61.39 60.86 61.07 58.89 58.31 56.48 54.93 53.53 48.84 44.26 41.47 40.72
28.72 27.03 26.19 25.79 31.14 33.68 31.22 28.35 33.70 37.34 38.34 38.98 39.82 40.28 41.98 42.34 42.20 42.02 43.37 42.90 43.63 43.16 42.69 43.70 44.73 44.76 44.92 45.09 45.48 45.75 46.90 47.97 48.53 53.23 61.19 61.86 62.14 61.51 61.34 60.25 58.87 57.49 56.22 52.91 51.19 48.15 45.55 39.60 41.24
23.81 31.63 29.69 28.72 26.68 20.61 31.02 16.90 29.76 33.63 35.48 36.60 37.71 37.70 39.57 40.94 41.77 42.56 42.95 42.72 41.92 41.40 41.59 41.92 42.50 43.60 43.94 43.39 42.81 42.62 43.21 42.98 46.13 48.75 53.14 60.33 61.77 61.24 61.07 60.03 58.22 56.86 55.85 52.72 49.98 48.47 46.59 43.66 41.94
26.68 31.50 29.13 29.75 26.48 25.05 25.94 19.60 27.39 34.30 32.49 34.01 35.89 37.78 38.49 40.06 40.49 40.43 40.67 41.03 40.19 40.30 39.36 39.53 39.83 40.21 41.51 41.93 41.75 41.63 41.79 43.66 45.99 47.82 49.26 52.39 60.78 60.87 60.61 60.09 58.28 57.02 56.20 53.76 50.91 48.20 47.31 45.41 44.75
32.79 30.65 31.21 28.54 26.59 13.67 25.27 22.98 23.38 28.94 31.91 33.28 36.09 37.12 38.49 38.72 39.00 39.45 39.77 39.02 37.82 37.97 37.14 37.23 37.12 37.48 38.72 39.89 40.38 40.32 40.21 41.42 42.82 45.60 47.31 51.95 55.68 60.15 60.01 59.82 58.56 57.40 55.81 53.46 50.88 48.84 47.14 45.74 46.45
31.65 26.46 15.48 13.65 16.81 15.18 28.31 23.62 25.41 32.87 34.03 35.00 35.20 36.00 36.29 37.19 37.34 37.01 36.13 35.23 34.85 34.06 34.58 35.16 35.41 35.33 36.83 37.53 39.03 39.77 40.35 41.78 42.33 43.97 46.84 50.24 55.13 58.94 59.07 59.28 58.23 56.55 55.10 53.07 51.20 49.17 47.94 46.11 45.79
27.35 25.50 12.02 3.34 9.93 15.32 25.95 17.63 26.25 34.88 35.86 36.47 36.98 36.17 35.90 36.21 36.28 35.20 34.50 33.26 32.44 32.37 32.66 33.03 34.03 34.17 35.68 36.48 37.38 39.31 40.69 41.83 43.08 44.34 47.59 52.91 56.27 57.74 58.21 58.38 57.42 56.13 54.85 53.28 51.98 50.05 49.07 47.24 46.82
26.21 20.39 28.13 12.91 15.78 14.58 20.78 26.85 33.08 35.21 34.00 35.01 34.20 34.19 34.09 34.76 35.11 33.04 32.64 30.86 30.43 30.39 30.56 31.77 33.07 34.33 35.70 36.58 37.29 37.73 39.71 41.24 42.11 43.68 47.45 53.33 57.08 57.10 57.19 57.57 56.38 55.49 54.15 52.41 50.91 49.65 48.68 47.37 46.58
27.49 30.00 17.43 18.51 4.47 4.65 17.38 21.68 22.34 28.80 30.95 32.30 31.52 31.83 33.40 34.78 32.69 31.96 29.88 29.09 29.45 30.21 31.00 31.69 32.66 33.23 34.91 36.87 37.66 37.17 38.98 41.16 42.66 44.24 45.77 51.49 47.59 48.37 54.22 55.53 54.21 53.39 52.16 51.03 50.34 48.60 44.28 40.96 40.35
21.72 20.30 20.52 21.05 18.61 8.42 8.28 16.48 29.30 30.48 31.91 30.03 31.11 32.68 33.96 33.21 31.15 29.16 28.26 28.47 29.03 29.83 29.81 30.46 31.45 32.45 34.27 36.47 37.98 37.54 38.41 40.73 42.02 42.76 44.35 43.46 43.64 41.97 39.20 39.38 41.63 40.87 39.58 39.11 36.68 35.88 36.61 35.12 34.52
25.89 25.22 23.40 10.43 11.95 18.70 15.22 15.90 32.72 33.48 34.12 31.95 31.71 32.81 33.90 32.38 30.19 27.82 27.45 27.56 27.84 27.67 28.50 29.34 30.88 33.56 35.61 36.72 38.12 39.20 40.51 41.18 38.71 35.39 35.57 36.33 34.28 35.34 35.86 35.64 34.59 34.77 35.03 35.53 35.00 33.92 34.36 34.15 33.61
MSLP
1010.30 1009.21 1008.80 1008.59 1008.92 1007.76 1006.71 1005.42 1004.28 1004.35 1004.35 1004.41 1004.58 1004.82 1004.71 1004.82 1004.96 1006.57 1006.68 1006.58 1006.57 1007.42 1008.37 1008.99 1009.39 1009.69 1010.22 1010.74 1011.18 1011.55 1011.67 1012.06 1012.34 1012.44 1012.81 1013.08 1013.53 1013.90 1014.14 1014.24 1014.49 1014.79 1015.00 1015.28 1015.71 1016.11 1016.52 1016.84 1017.05
1010.55 1009.07 1008.52 1008.43 1008.30 1007.52 1006.50 1005.46 1004.70 1004.66 1004.81 1004.80 1004.90 1004.92 1005.10 1005.71 1005.43 1006.46 1006.78 1007.09 1006.84 1007.43 1008.49 1009.11 1009.55 1009.73 1010.26 1010.64 1011.22 1011.85 1011.88 1012.14 1012.48 1012.72 1013.00 1013.25 1013.51 1013.80 1014.21 1014.54 1014.67 1014.87 1015.13 1015.55 1015.83 1016.23 1016.67 1017.02 1017.24
1009.86 1009.13 1009.06 1009.05 1008.40 1007.62 1006.87 1006.87 1005.15 1005.01 1005.05 1005.42 1005.52 1005.35 1005.57 1007.04 1007.02 1007.22 1007.35 1007.18 1007.14 1007.78 1008.48 1009.27 1009.69 1009.96 1010.26 1010.79 1011.18 1011.67 1012.00 1012.26 1012.44 1012.90 1013.12 1013.40 1013.78 1014.00 1014.30 1014.68 1014.85 1014.96 1015.27 1015.59 1015.98 1016.28 1016.64 1016.98 1017.20
1010.28 1009.34 1009.69 1009.84 1008.70 1007.79 1007.45 1007.73 1006.36 1005.89 1005.78 1005.97 1006.03 1006.24 1007.22 1008.19 1007.94 1007.87 1007.57 1007.55 1007.40 1008.13 1008.60 1009.39 1009.94 1010.10 1010.27 1010.95 1011.21 1011.66 1011.97 1012.36 1012.51 1012.77 1013.25 1013.50 1013.88 1014.16 1014.35 1014.68 1014.97 1015.10 1015.39 1015.45 1016.03 1016.49 1016.67 1017.01 1017.28
1010.53 1010.54 1010.33 1009.94 1009.32 1008.28 1007.74 1007.39 1007.24 1007.12 1006.81 1006.82 1006.94 1007.02 1007.81 1008.70 1008.68 1008.33 1008.08 1007.81 1007.67 1008.44 1008.75 1009.46 1010.04 1010.27 1010.37 1010.95 1011.31 1011.77 1011.92 1012.28 1012.67 1012.79 1013.03 1013.58 1013.94 1014.31 1014.58 1014.74 1015.04 1015.37 1015.51 1015.64 1016.04 1016.36 1016.68 1017.01 1017.33
1010.35 1010.43 1010.55 1010.37 1010.05 1009.06 1008.31 1008.25 1008.02 1008.05 1007.79 1007.74 1007.77 1008.02 1009.02 1009.48 1009.17 1008.80 1008.64 1008.04 1007.96 1008.61 1009.11 1009.55 1010.08 1010.44 1010.58 1010.87 1011.33 1011.65 1011.96 1012.18 1012.60 1012.83 1013.12 1013.33 1013.82 1014.32 1014.59 1014.77 1015.03 1015.40 1015.57 1015.93 1016.13 1016.25 1016.48 1017.02 1017.43
1010.72 1010.49 1010.22 1009.85 1009.41 1008.87 1008.38 1008.72 1008.66 1008.55 1008.78 1008.71 1008.64 1008.52 1008.77 1009.33 1009.50 1009.27 1009.04 1008.67 1008.30 1008.76 1009.22 1009.73 1010.14 1010.52 1010.68 1010.85 1011.35 1011.58 1011.94 1012.01 1012.37 1012.63 1012.95 1013.29 1013.55 1013.97 1014.51 1014.71 1014.79 1015.38 1015.62 1015.95 1016.36 1016.52 1016.62 1017.03 1017.49
1010.61 1010.65 1010.31 1010.04 1009.52 1009.05 1009.20 1009.19 1009.30 1009.33 1009.25 1009.09 1008.63 1008.71 1009.01 1009.62 1009.59 1009.46 1009.08 1009.06 1009.11 1008.97 1009.42 1009.66 1010.04 1010.45 1010.67 1010.77 1011.31 1011.62 1011.72 1012.04 1012.06 1012.50 1012.94 1013.34 1013.39 1013.77 1014.27 1014.68 1014.80 1015.23 1015.57 1015.91 1016.34 1016.61 1016.87 1017.13 1017.56
1010.75 1010.84 1010.44 1010.05 1009.89 1009.71 1009.99 1010.04 1009.81 1009.73 1009.78 1009.57 1009.07 1008.88 1009.19 1009.37 1009.39 1009.32 1009.16 1009.42 1009.39 1009.41 1009.60 1009.75 1010.00 1010.00 1010.37 1010.51 1010.98 1011.56 1011.68 1011.89 1012.33 1012.28 1012.74 1013.20 1013.58 1013.66 1014.06 1014.54 1014.93 1015.09 1015.40 1015.88 1016.33 1016.83 1017.18 1017.46 1017.74
1011.24 1011.15 1010.76 1010.71 1010.94 1011.10 1010.99 1011.06 1011.00 1010.82 1010.35 1009.81 1009.36 1008.80 1009.13 1009.53 1009.78 1009.55 1009.49 1009.54 1009.66 1009.43 1009.45 1009.52 1009.64 1009.90 1009.99 1010.05 1010.34 1011.09 1011.48 1011.69 1011.75 1012.21 1012.39 1012.85 1013.27 1013.71 1013.80 1014.17 1014.79 1015.22 1015.47 1015.73 1016.23 1016.69 1017.26 1017.62 1017.88
1011.37 1011.35 1011.49 1011.34 1011.78 1012.05 1011.77 1011.42 1011.44 1011.11 1010.44 1010.07 1009.95 1009.82 1009.61 1009.83 1009.90 1009.85 1010.04 1010.05 1010.04 1009.63 1009.51 1009.21 1009.36 1009.43 1009.69 1009.76 1009.86 1010.32 1010.79 1011.10 1011.33 1011.65 1012.05 1012.37 1012.71 1013.42 1013.72 1013.97 1014.37 1015.09 1015.61 1015.97 1016.41 1016.74 1017.12 1017.64 1017.97
1012.11 1011.66 1011.91 1011.96 1012.27 1012.58 1012.34 1012.03 1011.63 1011.17 1010.36 1010.12 1010.10 1010.07 1010.14 1010.29 1010.19 1009.97 1009.84 1009.94 1009.92 1009.73 1009.61 1009.27 1009.06 1009.07 1009.32 1009.15 1009.40 1009.55 1009.73 1010.11 1010.58 1010.94 1011.47 1012.00 1012.51 1012.72 1013.36 1013.64 1014.10 1014.71 1015.29 1015.66 1016.20 1016.94 1017.29 1017.33 1017.56
1012.46 1012.33 1012.41 1012.26 1012.42 1012.49 1012.34 1012.30 1012.13 1010.90 1010.04 1009.90 1009.78 1009.88 1009.96 1009.92 1009.84 1009.67 1009.80 1009.88 1009.65 1009.54 1009.47 1009.16 1008.93 1008.70 1008.86 1009.06 1008.65 1008.64 1008.76 1008.76 1009.41 1010.19 1010.66 1011.17 1011.72 1012.16 1012.50 1013.05 1013.69 1014.19 1014.82 1015.56 1015.95 1016.62 1017.18 1017.26 1017.81
1013.37 1013.07 1012.74 1012.48 1012.69 1012.79 1012.84 1012.27 1012.33 1010.41 1009.75 1009.68 1009.80 1009.75 1009.65 1009.47 1009.38 1009.59 1009.87 1009.96 1009.89 1009.75 1009.65 1009.36 1009.12 1008.90 1008.63 1008.59 1008.49 1007.41 1007.64 1007.96 1007.94 1008.91 1009.55 1010.18 1010.80 1011.19 1011.71 1012.59 1013.32 1013.68 1014.34 1015.02 1015.66 1016.34 1016.76 1017.72 1018.05
1013.80 1013.52 1012.50 1012.76 1012.83 1013.10 1013.15 1012.39 1011.32 1010.39 1009.98 1009.74 1009.70 1009.54 1009.34 1009.31 1009.52 1009.86 1010.10 1010.25 1010.11 1009.97 1009.76 1009.50 1009.19 1008.84 1008.58 1008.26 1007.95 1007.85 1005.93 1006.46 1007.60 1007.80 1008.38 1009.19 1009.55 1010.06 1010.81 1011.65 1012.52 1013.08 1013.61 1014.49 1015.27 1015.82 1016.99 1018.08 1018.57
1013.94 1013.60 1013.23 1012.92 1012.96 1013.26 1013.46 1012.32 1010.85 1010.29 1010.05 1009.80 1009.21 1009.12 1009.10 1009.20 1009.55 1009.81 1010.02 1010.04 1009.96 1009.86 1009.69 1009.43 1009.19 1008.92 1008.57 1008.18 1008.10 1007.46 1007.37 1006.77 1006.16 1006.04 1006.58 1007.72 1008.51 1009.05 1009.83 1010.74 1011.78 1012.37 1013.05 1013.70 1014.54 1015.61 1017.03 1017.94 1018.77
1014.56 1014.74 1014.26 1013.70 1013.12 1013.24 1013.35 1012.07 1010.82 1010.45 1010.03 1009.28 1008.82 1008.82 1008.96 1009.18 1009.45 1009.45 1009.53 1009.65 1009.80 1009.83 1009.73 1009.49 1009.22 1008.81 1008.37 1007.89 1007.63 1007.43 1006.96 1006.58 1005.71 1004.78 1006.05 1006.02 1007.07 1007.96 1008.93 1010.08 1010.96 1011.72 1012.67 1013.24 1013.74 1015.40 1016.48 1018.02 1019.18
1016.25 1015.97 1015.42 1014.91 1013.80 1013.80 1013.42 1011.79 1010.84 1010.10 1009.66 1008.83 1008.64 1008.77 1009.07 1009.37 1009.29 1009.34 1009.55 1009.73 1009.92 1009.92 1009.63 1009.34 1008.96 1008.67 1008.19 1007.73 1007.36 1006.98 1006.51 1005.65 1005.61 1004.36 1003.57 1005.30 1006.13 1006.77 1007.72 1009.28 1010.37 1011.02 1012.13 1013.11 1013.48 1014.78 1016.66 1017.91 1019.12
1017.02 1016.70 1015.87 1014.83 1014.54 1014.50 1013.36 1012.03 1010.25 1009.50 1009.01 1008.41 1008.50 1008.75 1008.90 1008.99 1008.97 1009.27 1009.35 1009.46 1009.60 1009.64 1009.49 1009.21 1008.97 1008.45 1008.09 1007.89 1007.50 1006.86 1006.22 1005.54 1004.63 1004.34 1003.65 1003.67 1005.03 1005.61 1006.94 1007.84 1009.29 1010.43 1011.46 1012.61 1013.19 1014.33 1016.11 1018.32 1019.07
1017.22 1016.99 1016.20 1015.16 1015.29 1015.42 1013.65 1011.79 1009.66 1008.59 1008.31 1008.30 1008.76 1009.13 1009.15 1009.18 1009.24 1009.27 1009.19 1009.28 1009.45 1009.61 1009.54 1009.19 1008.68 1008.22 1007.93 1007.71 1007.18 1006.84 1006.22 1005.47 1005.45 1004.62 1002.40 1003.45 1004.12 1004.88 1005.96 1007.12 1008.43 1009.51 1011.09 1011.91 1012.84 1013.65 1015.87 1017.53 1018.20
1017.33 1017.21 1017.26 1017.09 1016.15 1014.75 1014.25 1011.93 1009.77 1008.55 1008.45 1008.51 1008.58 1008.83 1009.04 1009.27 1009.46 1009.47 1009.45 1009.45 1009.42 1009.26 1009.18 1008.97 1008.33 1007.69 1007.35 1007.18 1006.80 1006.35 1005.96 1005.29 1004.65 1004.07 1003.75 1002.34 1002.63 1003.82 1004.48 1006.19 1007.28 1008.73 1009.88 1011.01 1011.84 1012.98 1013.77 1016.07 1017.60
1017.64 1017.41 1017.75 1017.81 1017.31 1016.63 1015.40 1014.09 1011.04 1009.31 1008.66 1008.73 1008.74 1009.17 1009.38 1009.64 1009.75 1009.85 1009.64 1009.43 1009.36 1009.12 1008.96 1008.68 1008.31 1007.63 1007.01 1006.81 1006.61 1006.25 1005.83 1005.07 1004.42 1004.03 1003.62 1002.40 1000.70 1002.04 1002.93 1004.59 1005.67 1007.41 1008.75 1009.88 1010.88 1011.92 1012.73 1013.98 1015.67
1018.04 1017.76 1017.94 1017.90 1017.62 1017.46 1015.69 1015.02 1011.37 1009.91 1009.33 1009.15 1009.44 1009.82 1010.00 1010.26 1010.46 1010.07 1009.72 1009.32 1009.22 1009.03 1008.74 1008.37 1007.80 1007.36 1006.92 1006.34 1006.08 1005.79 1005.25 1004.63 1003.93 1003.60 1003.14 1003.08 1000.74 1000.12 1001.82 1003.09 1004.31 1005.15 1007.26 1008.88 1009.74 1010.83 1012.22 1012.76 1014.03
1018.28 1017.94 1017.61 1017.87 1018.21 1017.67 1015.95 1015.21 1011.69 1010.38 1009.93 1009.77 1010.01 1010.24 1010.52 1010.63 1010.38 1010.07 1009.66 1009.54 1009.15 1008.87 1008.53 1007.99 1007.43 1006.84 1006.52 1006.05 1005.56 1005.24 1004.81 1004.28 1003.70 1003.10 1002.64 1001.58 1001.41 999.64 1000.85 1001.57 1003.34 1004.54 1005.22 1006.90 1008.60 1009.47 1010.64 1011.74 1012.24
1018.65 1019.12 1019.78 1019.61 1019.15 1017.66 1016.26 1015.16 1011.70 1010.21 1009.95 1010.19 1010.33 1010.62 1010.90 1011.00 1010.62 1010.12 1009.78 1009.36 1009.06 1008.73 1008.20 1007.63 1006.98 1006.24 1005.87 1005.56 1004.99 1004.54 1004.08 1003.69 1003.14 1002.69 1002.32 1001.68 1000.92 1000.70 999.71 1000.52 1001.71 1003.17 1004.33 1005.67 1007.34 1008.63 1009.40 1010.19 1011.35
1019.93 1020.99 1022.06 1022.42 1021.25 1019.10 1017.00 1014.70 1011.29 1009.90 1009.85 1010.30 1010.91 1011.25 1011.40 1011.28 1011.04 1010.76 1010.35 1009.79 1009.29 1008.71 1008.07 1007.32 1006.49 1005.65 1005.21 1004.77 1004.28 1003.85 1003.33 1002.93 1002.46 1002.08 1001.73 1000.96 1000.09 999.58 999.37 999.83 1001.05 1002.34 1003.01 1004.64 1006.06 1007.21 1008.45 1009.38 1010.09
1020.68 1021.50 1022.21 1023.02 1022.50 1021.06 1017.25 1013.76 1011.10 1010.43 1010.32 1010.78 1011.48 1011.72 1011.84 1011.69 1011.41 1011.03 1010.50 1010.21 1009.47 1008.70 1007.97 1007.14 1006.11 1005.11 1004.45 1003.91 1003.40 1003.07 1002.76 1002.15 1001.78 1001.38 1001.14 1000.39 999.22 999.32 999.75 1000.48 1001.18 1001.59 1002.53 1003.99 1004.89 1006.08 1007.42 1008.77 1009.76
1021.16 1022.05 1022.86 1023.65 1023.95 1021.97 1017.75 1014.66 1012.16 1011.03 1010.97 1011.58 1011.90 1012.05 1012.05 1011.89 1011.61 1011.33 1010.96 1010.34 1009.49 1008.52 1007.47 1006.53 1005.52 1004.37 1003.59 1002.98 1002.49 1002.18 1001.95 1001.45 1001.04 1000.73 1000.54 1000.24 999.39 999.59 999.53 999.63 1000.86 1001.83 1003.06 1004.27 1005.01 1005.49 1007.02 1008.84 1010.19
1021.78 1022.26 1023.13 1023.57 1023.93 1023.28 1020.14 1015.12 1011.91 1011.43 1011.67 1011.90 1012.12 1012.28 1012.29 1012.09 1011.84 1011.58 1011.09 1010.37 1009.43 1008.36 1007.25 1006.01 1004.77 1003.60 1002.63 1002.03 1001.59 1001.42 1001.21 1000.77 1000.47 1000.41 1000.45 1000.05 999.58 1000.22 1000.91 1000.91 1001.90 1002.59 1003.53 1004.53 1005.85 1007.17 1007.70 1009.03 1010.50
1021.29 1021.68 1022.52 1023.62 1024.15 1023.31 1021.55 1016.48 1012.24 1011.62 1011.69 1012.24 1012.58 1012.72 1012.81 1012.83 1012.25 1011.90 1011.31 1010.41 1009.40 1008.28 1006.96 1005.56 1004.01 1002.36 1001.45 1001.14 1000.86 1000.74 1000.69 1000.50 1000.47 1000.55 1000.53 1000.59 1000.52 1000.97 1001.01 1002.19 1003.51 1003.70 1004.33 1005.25 1006.34 1007.90 1008.90 1009.59 1011.24
Wind_Speed
15 9 7 3 3 5 10 11 2 3 1 8 9 8 8 5 4 3 2 3 0 15 14 15 17 18 16 14 13 14 15 16 16 17 18 17 16 15 15 16 15 14 16 15 14 15 15 14 15
13 9 3 3 4 6 6 12 8 6 8 7 5 6 6 4 11 7 5 5 2 15 14 12 13 17 16 15 13 13 15 14 15 16 17 18 17 16 16 15 14 16 15 14 14 14 14 13 13
14 2 2 3 5 9 5 5 3 9 4 7 7 6 6 7 12 6 8 6 4 13 13 11 12 16 16 15 15 13 13 13 14 15 18 17 16 15 15 15 14 14 15 15 15 16 15 14 13
5 1 2 1 8 13 5 6 12 10 9 6 5 6 8 13 4 7 7 4 2 10 11 14 13 15 16 14 14 14 14 14 14 15 16 17 16 13 15 15 14 14 15 16 16 15 15 14 13
2 2 1 1 12 9 9 11 12 12 7 7 9 6 5 9 13 11 9 4 1 8 10 13 13 15 16 14 13 14 13 13 14 14 16 15 14 13 13 15 16 14 14 16 16 14 13 15 13
2 2 2 3 20 11 4 7 3 7 10 11 6 7 5 7 12 13 10 7 3 9 9 10 11 12 14 15 14 14 14 13 12 13 15 16 16 13 14 15 15 14 14 14 14 10 14 15 13
3 3 6 9 11 12 3 6 4 2 4 3 6 4 3 11 9 8 9 12 6 8 9 7 9 10 11 12 12 12 13 14 13 13 13 14 14 14 14 14 16 14 13 14 12 9 15 15 13
2 2 6 8 10 12 6 6 5 6 4 7 1 2 3 4 4 4 7 7 10 4 5 8 8 8 9 9 9 11 11 11 13 13 11 10 12 13 14 11 13 15 15 14 13 10 11 13 12
3 3 5 11 7 4 9 8 7 7 7 10 10 4 5 7 8 7 4 4 3 1 1 5 8 11 11 10 9 9 9 10 10 11 12 10 6 10 12 9 11 14 14 15 15 14 12 11 10
3 4 5 5 8 8 10 9 9 9 11 10 12 10 9 9 7 8 8 6 5 4 5 5 7 7 10 9 12 11 7 7 8 8 9 8 8 7 10 9 12 11 13 16 15 15 13 7 4
2 3 7 9 7 8 10 11 8 8 7 7 8 10 11 7 7 7 6 7 6 5 6 6 7 8 8 9 7 7 6 7 7 8 9 7 7 7 6 5 5 7 9 6 7 7 5 5 4
4 2 4 5 6 4 7 10 8 11 12 9 8 8 5 8 8 7 6 6 7 7 7 7 7 8 10 9 8 9 10 9 8 9 11 8 6 9 8 6 7 9 6 9 7 4 5 5 7
4 6 4 2 4 6 8 9 11 17 18 10 5 4 8 8 8 6 6 8 8 7 8 8 7 7 9 11 10 11 12 12 12 11 12 10 10 9 9 7 8 8 8 9 9 6 5 6 8
6 7 8 3 6 7 9 14 7 9 2 1 7 9 9 10 6 6 7 6 7 8 8 8 9 8 9 12 14 13 12 12 13 12 13 15 11 10 10 8 9 9 10 9 8 9 7 7 8
4 5 7 7 5 3 6 11 8 11 6 7 8 9 9 6 5 5 5 5 6 5 7 8 9 10 8 11 13 12 14 13 11 13 17 18 16 14 12 10 10 9 11 13 10 10 10 8 8
5 3 5 6 3 5 3 7 19 11 11 16 10 8 7 4 2 2 2 4 5 6 7 7 8 9 10 10 11 10 10 11 17 17 17 20 19 18 14 11 9 10 10 11 12 11 10 9 8
2 5 8 9 5 1 3 13 16 14 17 14 8 7 5 2 6 6 5 4 5 6 7 8 8 8 10 10 9 11 15 12 15 14 15 21 22 20 14 12 11 13 11 11 13 11 12 10 8
4 5 6 12 6 7 13 24 20 15 18 11 5 2 2 6 7 3 4 4 5 6 7 8 8 9 8 8 8 6 10 12 12 13 16 21 18 22 18 13 13 13 11 10 12 15 11 11 11
5 8 10 14 10 12 10 20 24 16 14 6 5 6 8 6 2 4 4 4 4 7 8 8 10 10 7 5 6 6 8 10 12 12 18 19 19 22 18 14 15 13 13 14 15 15 17 10 11
7 9 9 9 14 17 11 22 23 15 7 3 5 7 8 6 7 7 6 5 6 10 13 14 13 12 8 6 6 5 6 7 9 10 13 16 18 18 17 15 16 18 12 15 16 17 12 6 11
6 6 8 10 17 12 9 9 8 6 6 3 7 6 5 7 8 7 9 9 11 14 14 17 18 13 11 10 7 7 7 8 11 11 11 18 22 22 23 19 17 18 16 14 17 17 17 12 10
4 6 9 13 9 4 8 7 6 3 6 3 6 8 7 8 9 12 16 17 16 14 11 13 17 15 10 9 10 11 11 13 10 10 11 12 26 25 23 21 21 20 14 17 16 16 14 14 16
8 11 12 14 6 6 2 1 8 10 7 8 9 8 10 13 17 21 21 18 16 17 16 17 17 17 18 16 12 11 13 11 9 9 14 13 18 26 25 24 24 24 16 17 20 19 15 13 14
10 9 10 1 2 1 2 2 8 4 5 7 7 9 14 17 20 20 15 17 20 18 17 16 17 17 17 17 15 15 16 15 12 11 10 9 8 12 22 25 21 21 19 20 19 20 20 16 15
7 7 5 7 2 6 6 5 10 11 5 4 8 10 15 20 19 18 20 20 20 19 18 16 17 18 16 17 16 14 15 15 13 12 10 11 8 12 19 22 22 18 20 19 19 18 17 19 16
5 3 5 4 4 7 9 8 7 4 4 4 12 14 18 20 18 20 21 19 19 20 19 19 19 19 18 17 16 14 14 10 9 10 10 11 9 7 8 16 16 21 21 21 20 16 16 18 16
1 2 1 0 4 2 6 7 9 5 4 9 13 16 20 20 19 22 19 18 19 19 19 20 20 19 17 17 15 14 14 13 10 11 10 11 9 9 13 16 13 15 16 18 19 13 15 15 13
3 1 1 1 4 7 8 7 7 8 9 10 17 18 20 20 21 18 18 19 19 19 18 19 19 19 17 16 14 14 14 12 10 9 10 11 4 4 8 14 11 10 13 12 13 12 11 10 7
1 1 2 2 2 4 6 8 3 6 8 15 18 19 21 21 20 19 18 19 18 18 18 18 17 18 15 13 13 12 13 11 7 6 3 2 7 9 10 10 8 11 11 12 13 10 12 15 14
4 4 5 6 5 4 2 12 8 6 16 18 18 18 19 18 18 18 18 18 18 19 19 19 18 15 12 11 10 9 7 3 3 3 3 8 9 9 11 14 12 11 13 13 15 13 13 16 15
Wind_Direction
306 312 284 259 236 226 260 238 65 345 26 31 10 340 342 311 318 28 200 56 149 128 142 160 162 158 160 161 160 165 160 165 171 168 160 155 153 146 132 128 128 130 133 128 117 109 109 106 114
299 313 233 267 252 235 259 298 139 208 43 9 279 284 266 71 26 99 83 41 106 131 139 163 162 158 160 161 161 168 165 170 169 159 161 156 154 155 151 143 138 134 133 136 131 129 125 125 122
285 277 324 343 261 263 295 289 5 71 83 42 328 4 324 2 32 25 356 98 292 118 145 153 161 164 161 164 159 166 164 167 168 165 159 157 158 154 149 150 143 135 146 150 141 138 138 136 133
325 225 153 91 260 278 355 137 326 22 353 71 339 312 88 29 18 17 359 29 218 130 149 144 165 168 160 170 165 169 175 179 167 174 169 165 163 162 153 153 148 145 153 153 146 147 144 143 138
247 358 57 278 297 324 344 13 18 354 344 325 19 307 59 40 14 12 357 4 56 139 125 157 164 170 165 172 177 183 183 186 187 172 167 169 165 166 163 157 149 147 174 147 156 157 160 147 144
204 233 195 193 239 243 279 27 13 352 345 1 25 343 77 37 22 3 359 342 322 127 130 158 165 174 172 173 184 188 188 190 192 184 189 174 170 176 166 160 154 155 168 157 159 165 144 145 142
302 231 247 285 297 292 169 360 43 33 288 343 312 286 123 43 16 8 7 342 5 125 134 152 177 182 173 174 188 190 193 189 189 192 185 173 175 161 166 168 151 162 160 160 150 154 139 138 141
223 288 284 278 273 263 52 6 73 13 325 339 27 293 356 60 19 8 353 358 359 115 136 153 186 184 191 177 181 193 199 197 185 182 181 180 175 161 168 174 159 168 170 160 144 133 134 134 132
303 270 260 271 320 11 44 13 342 353 305 292 265 242 68 42 7 358 15 348 328 343 223 169 197 190 192 189 186 197 201 201 197 185 186 181 183 175 171 174 170 179 171 150 141 132 120 115 121
254 216 307 24 17 350 345 352 319 300 292 284 301 311 26 24 355 344 339 336 329 293 232 208 184 212 203 204 189 192 198 201 194 189 187 185 177 178 173 173 166 184 158 147 144 135 124 130 135
258 245 11 37 25 356 323 308 337 306 268 266 322 325 340 356 327 346 330 329 319 309 315 222 212 199 210 209 203 185 197 194 200 191 186 178 173 179 191 170 157 154 154 138 124 131 127 189 156
279 61 7 328 24 312 309 314 299 270 267 298 307 285 341 293 293 296 303 301 305 309 296 300 230 225 212 210 204 194 193 188 197 197 188 172 177 178 204 166 154 156 163 139 137 149 184 174 141
247 19 322 313 324 304 316 292 284 292 288 282 317 327 266 292 294 319 325 315 290 285 293 284 298 226 218 231 216 201 200 188 192 192 191 181 183 184 185 166 160 168 156 152 149 163 143 100 89
351 317 294 338 313 311 296 298 318 282 326 102 273 274 282 282 316 339 327 327 337 330 322 322 318 311 277 235 236 224 196 198 189 189 194 188 187 187 173 171 168 175 159 160 158 148 120 111 105
283 296 241 205 234 280 355 281 208 248 294 315 280 266 277 285 351 333 353 337 319 313 307 304 299 303 301 285 248 247 219 189 195 195 195 191 188 190 176 175 170 172 166 163 150 137 118 114 103
241 161 3 163 83 146 25 280 294 335 322 303 277 275 276 310 315 250 356 309 331 319 324 309 301 295 292 292 300 261 241 219 206 195 192 189 189 190 180 178 169 163 169 160 153 144 131 124 117
50 321 336 337 319 244 201 286 267 302 293 287 271 260 263 329 248 231 211 291 324 323 318 312 309 297 292 282 280 289 254 236 228 192 202 188 184 186 182 183 165 163 170 167 154 148 139 133 124
318 320 322 301 290 338 314 278 288 289 281 280 294 332 275 247 251 349 313 316 326 323 313 315 310 308 303 306 299 291 292 256 242 223 190 188 190 188 179 179 164 165 163 170 155 144 138 138 135
274 277 281 292 329 347 285 290 285 286 285 277 242 201 224 245 230 256 270 288 328 316 313 305 307 301 305 299 298 296 287 295 247 236 201 178 199 188 191 177 164 167 167 171 160 143 136 134 133
313 309 299 308 354 312 296 292 290 276 249 62 6 328 329 335 330 287 286 329 338 327 315 314 300 290 285 288 279 270 277 287 287 300 217 195 182 177 183 180 173 171 170 167 162 151 139 127 170
309 295 344 308 328 285 323 288 350 5 93 196 235 218 244 253 263 321 330 324 314 308 311 302 290 283 276 274 288 286 279 277 278 256 255 198 187 182 177 173 171 177 170 171 166 163 155 153 197
298 41 332 308 332 304 12 289 299 35 223 169 29 6 349 349 349 329 314 310 313 311 305 305 312 302 293 291 287 280 274 279 276 280 276 284 190 183 174 172 169 174 176 173 174 170 166 159 173
250 316 291 272 267 306 325 56 264 301 12 356 10 3 355 348 330 317 312 309 317 310 304 298 291 289 289 286 273 275 275 273 277 273 277 240 234 180 183 179 179 174 175 180 176 171 176 175 169
280 295 298 69 225 358 205 88 280 286 346 345 353 346 344 327 318 309 314 316 310 307 303 295 293 285 284 284 277 271 271 274 272 271 276 276 276 210 188 182 180 182 176 174 179 177 174 178 173
15 1 342 355 333 231 157 287 246 290 35 352 306 347 339 330 321 318 317 317 312 310 301 299 293 289 285 286 281 271 272 272 271 273 271 256 232 237 196 187 181 178 175 173 178 180 181 177 178
53 73 131 254 297 286 285 233 255 338 109 318 10 339 338 326 319 322 316 315 312 310 308 303 295 289 281 276 273 273 263 262 260 262 264 266 231 206 207 174 179 179 174 178 181 181 183 187 184
132 110 50 215 237 316 242 279 290 126 343 20 345 338 335 327 327 319 325 321 314 311 306 298 293 286 279 272 265 270 277 254 258 262 263 266 224 188 183 182 179 171 176 178 173 177 180 183 185
50 346 118 38 331 299 284 291 250 340 321 352 341 336 335 330 327 329 324 322 317 312 308 302 295 288 280 271 258 257 259 265 251 257 265 257 92 93 197 171 166 168 169 182 184 169 145 129 124
134 181 280 113 188 219 304 266 306 299 353 352 341 344 337 330 329 332 329 322 318 317 315 307 298 287 275 268 253 247 250 255 250 259 248 286 109 110 89 61 87 113 111 108 100 90 110 116 120
312 220 171 132 263 244 208 267 269 279 357 354 341 337 335 328 332 332 329 326 329 328 324 319 311 291 265 254 250 243 251 308 24 75 133 80 75 66 95 116 88 78 92 100 109 105 113 115 115